Regional Weather Roundup
Issued by NWS

Home | Current Version | Previous Version | Graphics & Text | Print | Product List | Glossary On
Versions: 1 2 3 4 5 6 7 8 9 10 11 12 13 14 15 16 17 18 19 20 21 22 23 24 25 26 27 28 29 30 31 32 33 34 35 36 37 38 39 40 41 42 43 44 45 46 47 48 49 50
000
ASUS45 KBOU 170007
RWRCO

WEATHER ROUNDUP FOR COLORADO
NATIONAL WEATHER SERVICE DENVER/BOULDER CO
600 PM MDT TUE SEP 16 2014

NOTE: "FAIR" INDICATES FEW OR NO CLOUDS BELOW 12000 FEET WITH NO
SIGNIFICANT WEATHER AND/OR OBSTRUCTIONS TO VISIBILITY.

COZ001>005-013-030-031-170100-
...NORTHWEST COLORADO...

CITY           SKY/WX    TMP DP  RH WIND       PRES   REMARKS
CRAIG          SUNNY     81  32  17 CALM      30.17F
HAYDEN         SUNNY     79  28  15 W5        30.20S
MEEKER         SUNNY     81  31  16 SW7       30.18F
MOUNT WERNER   NOT AVBL
STEAMBOAT SPGS SUNNY     76  32  20 SW5       30.22S
WALDEN         MOSUNNY   70  28  21 N8        30.32S
$$

COZ006>008-011-170100-
...WEST CENTRAL VALLEYS...

CITY           SKY/WX    TMP DP  RH WIND       PRES   REMARKS
GRAND JUNCTION MOSUNNY   84  42  22 W7        30.06F
MONTROSE       SUNNY     84  38  19 NW8       30.14F
EAGLE          MOSUNNY   81  37  21 W12       30.21S
RIFLE          MOSUNNY   81  37  20 CALM      30.11F
DELTA          SUNNY     89  31  12 W9        30.08S
NUCLA          SUNNY     82  41  23 NW9       30.17F
$$

COZ017>023-064>068-170100-
...SOUTHWEST COLORADO...

CITY           SKY/WX    TMP DP  RH WIND       PRES   REMARKS
DURANGO        PTSUNNY   76  43  30 N10       30.19F
CORTEZ         MOSUNNY   73  55  53 NW5       30.15F
PAGOSA SPRINGS PTSUNNY   74  33  21 W3        30.28S
TELLURIDE      NOT AVBL
WOLF CREEK PAS CLOUDY    50  34  53 S5        30.59S
$$

COZ009-010-012-014-032>034-037-058>063-170100-
...CENTRAL COLORADO...

CITY           SKY/WX    TMP DP  RH WIND       PRES   REMARKS
ASPEN          SUNNY     75  31  19 N8          N/A
BUENA VISTA    MOSUNNY   76  25  15 NW8       30.28S
COPPER MTN     MOSUNNY   59  23  25 W17       30.62S
BERTHOUD PASS  FAIR      48  46  93 W13       30.67R
COTTONWOOD PAS CLOUDY    70  27  19 CALM      30.44S
GUNNISON       MOSUNNY   73  37  27 W5        30.28F
KREMMLING      PTSUNNY   77  19  11 NW6       30.27S
LEADVILLE      MOSUNNY   65  26  23 W13       30.43F
MONARCH PASS   MOSUNNY   57  30  35 W15G25    30.71F
SALIDA         MOSUNNY   75  35  23 W5        30.30S
SUNLIGHT       SUNNY     61  34  36 CALM      30.55S
WILKERSON PASS NOT AVBL
$$

COZ069>075-170100-
...SAN LUIS VALLEY/SANGRE DE CRISTO MOUNTAINS...

CITY           SKY/WX    TMP DP  RH WIND       PRES   REMARKS
ALAMOSA        MOSUNNY   73  37  27 SW12      30.24F
LA VETA PASS   NOT AVBL
SAGUACHE       PTSUNNY   77  32  19 S9        30.26F
$$

COZ035-036-038>040-170100-
...NORTHERN COLORADO FRONT RANGE...

CITY           SKY/WX    TMP DP  RH WIND       PRES   REMARKS
DENVER INTL AP MOSUNNY   83  35  18 NE9       30.10F
DMNS CITY PARK   N/A     80  36  20 NE7G13    30.10S
AURORA         MOSUNNY   81  38  21 NE8       30.13S
FRONT RANGE AP NOT AVBL
ERIE MUNI ARPT MOSUNNY   84  32  15 E7        30.08S
BOULDER MUN AP MOSUNNY   81  45  28 NE3       30.09S
CENTENNIAL     MOSUNNY   82  34  17 NE8       30.14S
BROOMFIELD     MOSUNNY   81  37  21 E6        30.13S
FORT COLLINS   MOSUNNY   84  39  20 S9        30.05R
LONGMONT       MOSUNNY   85  44  23 E3        30.09S
$$

COZ041-046-047-076>085-087-088-170100-
...PIKES PEAK/PALMER DIVIDE AND SOUTHERN FOOTHILLS...

CITY           SKY/WX    TMP DP  RH WIND       PRES   REMARKS
COLO. SPRINGS  PTSUNNY   79  37  22 E8        30.18R
A. F. ACADEMY  PTSUNNY   78  37  22 E5        30.19S
ELLICOTT       NOT AVBL
FALCON         PTSUNNY   74  35  24 NE7       30.23S
FORT CARSON    PTSUNNY   81  36  19 VRB7G35   30.14R
LIMON          MOSUNNY   79  35  20 N6        30.11S
MONUMENT HILL  PTSUNNY   72  34  25 E8        30.23S
TRINIDAD       MOSUNNY   84  36  18 NE7       30.13F
$$

COZ042>045-048>051-090-091-170100-
...NORTHEAST COLORADO...

CITY           SKY/WX    TMP DP  RH WIND       PRES   REMARKS
GREELEY ARPT   MOSUNNY   88  34  14 SW7       30.05S
AKRON          SUNNY     80  38  22 NE9       30.07S
BURLINGTON     CLEAR     86  39  19 N9        30.02S
WRAY           CLEAR     84  42  23 N10       30.01R
STERLING       SUNNY     86  46  25 NE6       30.00F
HOLYOKE        CLEAR     81  48  32 N5        30.01S
FORT MORGAN    SUNNY     82  34  18 E8        30.06R
$$

COZ086-089-092>099-170100-
...SOUTHEAST COLORADO...

CITY           SKY/WX    TMP DP  RH WIND       PRES   REMARKS
PUEBLO         MOSUNNY   87  36  16 SE14      30.04S
LA JUNTA       SUNNY     88  40  18 SE7       30.01F
LAMAR          SUNNY     89  44  20 SE5       29.97F
SPRINGFIELD      N/A     80  55  42 S16       30.06R
$$


USA.gov is the U.S. government's official web portal to all federal, state and local government web resources and services.